View from above orbital plane
|
View from above satellite
|
Ground track
|
The orbit data is extracted from the following two-line orbital elements,
1 00107U 61013A 21107.85821478 .00000372 00000-0 31101-4 0 9995
2 00107 28.7881 262.0170 0545967 3.8309 356.6224 14.09175241 9204
Epoch (UTC): | 17 April 2021 20:35:49 |
Eccentricity: | 0.0545967 |
inclination: | 28.7881° |
perigee height: | 467 km |
apogee height: | 1257 km |
right ascension of ascending node: | 262.0170° |
argument of perigee: | 3.8309° |
revolutions per day: | 14.09175241 |
mean anomaly at epoch: | 356.6224° |
orbit number at epoch: | 920 |
The dashed part of the orbit path shows where the satellite is in the earth's shadow,
|
|